Wind_Speed
79 89 96 105 108 116 114 115 115 117 118 120 115 111 108 105 103 99 95 93 88 84 81 80 79 79 81 80 79 76 77 77 77 76 74 74 74 73 71 70 66 68 68 63
76 84 94 103 108 110 113 116 117 118 117 122 118 116 114 110 106 101 99 94 91 87 84 81 79 78 77 80 80 81 80 80 81 81 82 82 78 76 75 75 73 74 77 81
78 83 91 99 104 106 109 109 114 115 118 118 121 118 116 111 109 105 100 97 94 90 88 85 83 82 81 81 81 82 83 82 82 82 82 83 83 82 79 78 77 77 79 81
80 85 91 95 101 103 107 110 112 116 117 116 116 117 115 112 110 108 104 101 98 94 90 91 89 86 85 84 84 83 83 84 83 83 83 84 83 83 82 82 81 80 82 85
75 86 89 91 98 103 106 112 113 114 116 118 115 115 114 114 111 108 109 106 104 102 98 95 96 93 90 89 89 89 89 90 89 87 86 86 85 86 87 87 89 89 88 90
74 86 91 93 97 100 103 110 112 113 117 116 116 113 115 114 110 110 109 111 108 107 105 100 98 96 95 95 95 95 95 95 95 93 91 89 89 88 88 90 92 93 94 94
69 79 91 93 94 101 100 101 107 109 113 113 113 114 109 112 112 112 112 111 112 110 108 105 101 100 98 99 100 100 100 100 100 100 98 96 95 94 94 95 97 99 100 101
61 71 81 89 90 91 93 95 97 100 102 107 109 109 107 107 107 111 112 112 111 111 110 110 106 106 107 108 106 104 106 104 102 103 102 103 104 101 100 102 102 104 104 107
55 66 74 82 90 92 95 96 96 96 99 101 103 105 106 106 106 105 108 111 113 111 110 110 110 107 113 112 109 111 113 112 108 106 108 106 108 109 109 110 111 112 113 114
48 59 70 79 85 89 92 96 95 95 96 98 99 101 105 105 106 107 108 108 111 112 112 111 109 112 112 114 115 114 115 114 115 113 110 111 111 112 115 118 118 118 121 123
40 47 56 64 71 78 83 87 90 90 90 91 93 95 101 104 106 108 108 109 109 108 110 111 112 112 113 114 114 116 116 116 116 114 112 111 112 114 116 116 118 120 120 121
26 30 42 54 61 69 77 83 88 88 89 90 91 92 95 101 103 107 110 109 109 108 108 109 111 112 111 113 116 117 118 118 117 115 115 114 116 116 118 119 120 123 124 123
24 28 28 31 43 54 62 69 75 79 82 85 87 92 93 93 97 98 104 107 109 109 110 109 109 108 111 113 114 114 116 117 118 119 118 120 120 120 123 124 127 127 125 123
23 25 29 34 37 39 44 49 55 62 70 76 79 81 83 89 92 93 96 97 100 107 111 109 107 111 111 113 113 114 115 117 117 116 115 117 118 118 118 118 119 120 121 120
22 23 24 26 28 31 34 39 44 51 59 63 67 71 74 78 83 86 88 88 91 94 97 94 101 108 111 112 113 115 115 115 114 114 115 117 117 117 118 120 120 121 122 123
28 26 24 24 25 26 29 32 36 43 50 53 58 60 62 66 70 73 80 83 84 82 81 88 96 101 103 106 109 112 113 113 109 109 111 113 113 115 117 118 119 117 117 117
28 27 26 25 24 22 23 23 28 33 37 43 48 53 59 62 65 67 69 71 71 72 78 82 85 89 91 89 87 91 93 95 96 95 97 100 99 99 101 103 103 103 101 100
20 19 19 20 18 20 17 18 21 25 27 30 35 38 43 50 56 62 66 68 67 70 72 73 74 75 75 77 79 80 82 81 81 81 84 83 82 85 86 85 81 80 74 67
14 16 18 19 24 22 20 18 15 18 18 20 22 26 30 35 43 46 52 58 64 67 68 71 73 74 75 74 72 72 71 67 64 62 67 67 67 64 61 56 54 54 58 61
15 16 18 21 23 23 18 18 14 10 6 7 6 9 10 13 22 28 35 38 40 44 45 49 51 51 53 52 46 43 45 52 49 53 50 45 44 43 43 46 51 54 57 63
21 19 21 21 20 20 19 17 16 9 3 4 6 5 6 10 17 20 20 20 23 24 23 23 24 25 27 29 31 30 28 32 35 35 35 37 38 41 46 47 50 56 62 67
22 25 25 25 23 22 21 20 14 6 5 5 5 6 10 14 18 16 14 14 20 22 23 24 25 27 27 28 28 29 29 29 31 34 37 38 42 45 44 48 53 60 65 68
25 32 35 33 30 26 23 16 12 9 7 7 7 8 10 9 9 10 12 13 15 17 19 21 24 25 27 29 30 31 33 35 38 41 43 44 42 44 48 53 58 62 66 61
30 33 37 35 32 28 25 22 19 16 14 12 13 15 17 18 19 19 19 20 22 24 25 27 29 31 33 35 37 38 40 42 45 45 43 44 46 49 52 56 59 62 58 41
34 34 35 35 33 29 25 25 25 25 24 23 22 23 23 24 26 27 27 27 28 28 29 31 34 36 39 40 42 44 44 44 45 46 48 49 52 55 55 57 59 56 43 31
37 38 36 36 35 33 31 30 32 30 28 30 28 25 26 28 29 27 27 29 31 33 34 35 38 40 41 43 45 46 47 49 51 53 54 55 56 58 58 57 56 45 31 28
Wind_Direction
207 206 205 204 206 208 209 213 216 218 219 221 222 223 225 221 222 222 221 221 221 221 223 227 231 234 236 239 240 244 247 249 251 254 256 259 262 263 266 265 263 264 261 263
205 202 202 202 203 205 209 213 216 216 219 220 222 224 225 226 222 223 223 224 225 227 226 228 231 234 239 242 243 244 248 251 253 254 257 259 261 262 263 265 265 266 267 268
200 203 200 202 203 204 207 212 217 218 219 221 221 223 226 228 228 225 225 227 227 230 230 231 232 234 237 240 244 245 247 250 252 254 257 258 261 264 267 268 269 268 267 269
198 200 199 201 203 204 206 210 214 218 219 222 223 223 225 228 231 232 229 229 230 231 233 234 236 237 239 240 244 247 250 252 254 256 259 261 263 265 269 271 272 272 273 276
199 199 200 202 203 205 206 209 213 216 218 220 223 225 225 228 230 233 233 231 232 230 233 236 236 239 241 243 245 248 250 252 253 255 257 260 263 265 266 268 270 274 276 276
195 199 200 201 205 207 209 211 214 216 218 219 222 224 226 228 229 233 236 235 236 234 234 236 238 240 242 244 246 249 251 253 255 257 259 262 265 268 270 272 273 274 276 280
195 198 201 203 206 208 210 212 216 219 220 221 222 225 228 230 230 230 234 237 239 240 239 240 240 241 244 246 248 250 252 254 256 258 260 261 264 267 270 272 274 276 279 280
197 198 202 205 207 210 214 214 217 221 224 224 226 226 229 232 234 234 234 236 239 243 244 242 244 243 245 248 249 252 253 255 258 259 261 262 263 266 269 270 272 274 276 277
196 199 200 204 207 210 213 214 218 221 224 226 227 228 230 233 236 237 236 238 239 240 245 248 248 248 247 249 252 253 254 255 258 259 259 262 264 264 266 269 271 274 275 277
194 198 203 204 208 211 213 216 218 222 224 227 228 230 230 232 234 237 239 239 240 240 242 242 244 250 252 251 254 256 256 256 258 261 262 264 266 268 270 270 273 274 274 275
193 200 203 208 210 211 215 218 222 224 227 230 230 232 233 235 236 238 240 242 243 244 245 245 245 247 251 253 256 259 260 261 262 264 266 267 268 269 270 272 274 277 278 279
177 193 204 207 212 216 216 219 221 224 227 229 232 234 236 237 238 240 241 243 245 246 248 249 249 251 252 252 253 254 257 261 263 265 267 269 271 272 273 275 276 277 281 282
175 182 191 202 213 218 221 224 226 229 232 234 235 237 239 241 241 243 244 245 246 247 248 250 252 254 255 257 257 259 259 260 260 262 264 266 269 270 270 270 271 274 277 280
170 179 187 196 204 213 219 224 228 233 235 237 239 241 242 244 245 246 246 247 248 249 249 250 252 254 255 257 259 261 261 261 263 265 267 269 270 272 273 274 275 277 278 280
176 179 184 188 198 206 212 219 225 231 236 238 241 242 243 243 245 246 248 249 249 248 250 250 252 253 254 255 257 259 262 264 266 267 268 268 271 273 274 275 276 277 279 281
179 187 192 201 206 211 215 222 230 235 237 236 237 238 238 238 240 242 243 244 246 248 247 245 245 248 251 255 257 259 261 264 267 267 268 268 270 272 274 276 278 280 281 282
178 183 190 198 206 212 217 224 233 238 241 241 241 241 239 237 237 239 242 242 242 241 241 244 247 249 252 255 257 258 260 260 262 265 267 269 272 273 274 278 281 284 286 287
185 192 195 195 204 212 218 237 248 251 247 239 231 231 232 232 233 234 237 241 240 242 245 248 250 252 256 258 258 260 262 266 269 270 272 275 276 277 280 283 285 286 289 290
191 197 190 196 204 204 208 225 237 248 247 240 231 226 225 228 231 227 231 238 242 243 246 249 251 253 256 260 265 267 270 271 270 271 270 273 276 277 281 284 286 290 291 292
194 191 202 209 210 212 205 210 223 239 250 233 214 215 239 233 231 236 236 238 242 245 249 249 255 259 259 264 261 256 259 261 262 266 266 271 272 276 281 288 290 290 292 293
201 199 204 209 212 208 211 209 220 220 156 124 145 157 199 236 227 241 246 249 250 252 254 249 249 262 266 268 265 262 260 252 258 260 267 269 277 285 286 287 290 293 296 296
203 193 190 194 194 192 200 205 211 182 182 172 178 204 226 233 241 249 261 265 266 267 265 262 268 272 266 263 268 271 269 267 265 267 274 282 283 282 285 289 293 295 297 301
205 194 191 193 200 205 204 204 205 198 196 212 214 213 220 230 229 232 239 244 251 259 263 265 267 270 272 272 272 271 271 272 275 278 281 281 279 284 287 290 293 298 302 302
208 205 207 210 213 215 207 209 211 217 223 232 244 247 246 249 252 254 254 258 259 260 262 264 267 269 269 269 269 270 274 276 276 276 275 277 280 282 286 292 298 302 302 292
212 213 212 216 222 223 224 229 230 229 226 224 229 238 247 253 253 251 253 255 258 261 264 266 266 267 268 269 270 272 272 271 270 271 273 276 279 283 289 293 299 301 292 280
213 216 217 222 225 230 235 239 241 241 244 245 246 249 247 249 248 249 253 256 258 259 261 261 262 263 265 266 266 268 269 270 272 273 275 278 282 286 289 294 301 292 274 268
Height
10517 10539 10569 10592 10615 10633 10653 10668 10681 10693 10712 10722 10741 10754 10764 10779 10791 10805 10818 10828 10837 10845 10854 10859 10863 10865 10868 10871 10877 10881 10883 10885 10887 10887 10888 10888 10887 10891 10895 10896 10899 10898 10899 10899
10510 10532 10548 10569 10591 10617 10639 10649 10659 10677 10691 10704 10723 10737 10747 10761 10778 10794 10806 10817 10827 10837 10843 10848 10854 10856 10857 10859 10866 10871 10873 10875 10874 10876 10876 10876 10877 10880 10882 10885 10887 10887 10887 10885
10500 10520 10538 10559 10580 10602 10623 10640 10650 10665 10679 10692 10705 10716 10734 10752 10764 10781 10796 10806 10817 10823 10829 10835 10840 10843 10846 10849 10852 10858 10860 10860 10860 10862 10861 10863 10863 10866 10870 10872 10873 10873 10872 10871
10484 10507 10526 10548 10570 10590 10609 10622 10629 10642 10663 10684 10694 10713 10723 10741 10754 10767 10783 10795 10803 10811 10817 10823 10828 10832 10836 10841 10844 10844 10846 10846 10847 10850 10849 10850 10854 10856 10857 10858 10858 10857 10856 10856
10484 10500 10523 10544 10560 10576 10593 10604 10611 10629 10649 10666 10685 10698 10716 10725 10742 10756 10764 10777 10786 10795 10803 10809 10814 10821 10826 10830 10832 10830 10830 10831 10834 10837 10838 10839 10842 10845 10846 10846 10843 10842 10840 10838
10474 10491 10513 10530 10549 10567 10579 10594 10602 10618 10639 10656 10673 10687 10695 10713 10734 10738 10748 10760 10768 10780 10788 10796 10803 10811 10813 10815 10816 10815 10817 10818 10819 10823 10827 10829 10830 10831 10832 10830 10828 10827 10825 10825
10477 10494 10508 10526 10542 10555 10577 10592 10604 10615 10634 10655 10668 10678 10693 10699 10712 10727 10734 10741 10750 10762 10774 10782 10790 10797 10800 10796 10795 10797 10799 10800 10805 10809 10815 10818 10818 10819 10818 10816 10813 10812 10812 10809
10486 10498 10515 10533 10549 10570 10583 10595 10608 10620 10633 10647 10659 10674 10685 10688 10697 10710 10719 10727 10734 10744 10755 10767 10774 10782 10781 10777 10782 10783 10783 10785 10790 10795 10799 10801 10803 10804 10804 10802 10799 10798 10797 10794
10483 10497 10508 10524 10539 10556 10572 10585 10597 10610 10620 10633 10648 10661 10672 10679 10684 10691 10700 10707 10718 10731 10739 10745 10755 10760 10761 10763 10767 10766 10765 10770 10775 10780 10784 10786 10788 10790 10785 10783 10786 10783 10778 10775
10481 10491 10503 10516 10533 10548 10561 10570 10587 10599 10609 10620 10633 10642 10654 10659 10666 10671 10678 10688 10698 10707 10721 10729 10733 10735 10740 10747 10748 10746 10747 10757 10758 10762 10767 10770 10771 10770 10768 10767 10764 10762 10757 10753
10483 10495 10508 10521 10535 10546 10560 10573 10584 10596 10606 10613 10622 10631 10639 10645 10656 10661 10665 10674 10682 10693 10701 10711 10715 10720 10725 10727 10728 10726 10729 10736 10739 10744 10749 10753 10751 10751 10748 10744 10740 10736 10733 10733
10490 10499 10508 10516 10529 10541 10552 10562 10573 10581 10590 10599 10607 10616 10623 10631 10639 10646 10651 10659 10668 10677 10684 10690 10695 10703 10708 10705 10708 10711 10713 10716 10718 10724 10728 10731 10730 10729 10726 10722 10717 10714 10713 10709
10493 10501 10510 10520 10530 10540 10549 10559 10569 10577 10585 10591 10599 10600 10609 10617 10626 10633 10637 10644 10652 10661 10665 10671 10680 10686 10679 10681 10688 10692 10694 10699 10701 10703 10710 10710 10711 10708 10704 10701 10700 10698 10693 10687
10496 10503 10510 10517 10524 10534 10543 10552 10561 10569 10572 10576 10581 10588 10598 10602 10607 10616 10618 10628 10637 10643 10652 10660 10661 10657 10663 10664 10670 10672 10672 10671 10680 10690 10691 10687 10683 10683 10680 10679 10676 10672 10669 10664
10500 10506 10512 10519 10526 10532 10540 10547 10553 10556 10558 10562 10569 10573 10581 10588 10591 10596 10606 10614 10617 10626 10637 10639 10636 10639 10637 10643 10645 10646 10652 10657 10661 10666 10663 10662 10662 10660 10657 10652 10650 10649 10645 10641
10498 10505 10513 10519 10525 10530 10536 10541 10544 10545 10546 10552 10555 10559 10564 10569 10573 10581 10582 10590 10598 10609 10613 10613 10613 10615 10620 10624 10629 10632 10636 10640 10642 10638 10640 10640 10639 10633 10632 10629 10626 10624 10620 10616
10498 10503 10510 10515 10521 10526 10529 10532 10533 10535 10537 10539 10542 10545 10549 10555 10560 10564 10568 10575 10584 10589 10588 10593 10599 10603 10605 10611 10612 10615 10620 10619 10620 10623 10621 10619 10619 10615 10612 10609 10606 10604 10598 10592
10500 10504 10508 10513 10518 10521 10522 10523 10525 10526 10527 10528 10530 10531 10535 10540 10545 10551 10555 10560 10569 10572 10575 10579 10583 10589 10592 10593 10596 10597 10598 10602 10604 10604 10601 10601 10599 10596 10593 10591 10588 10584 10578 10572
10500 10504 10509 10511 10513 10515 10516 10519 10521 10520 10520 10521 10523 10526 10528 10533 10537 10542 10546 10550 10555 10562 10566 10569 10572 10575 10577 10581 10585 10587 10587 10587 10585 10584 10584 10584 10582 10579 10578 10576 10573 10569 10563 10558
10498 10502 10506 10508 10510 10510 10514 10516 10517 10517 10519 10520 10523 10527 10530 10534 10536 10540 10543 10547 10551 10554 10557 10560 10562 10565 10567 10570 10572 10573 10572 10571 10572 10572 10573 10572 10570 10570 10567 10565 10561 10556 10551 10544
10495 10499 10501 10504 10507 10510 10512 10514 10515 10517 10520 10522 10523 10526 10529 10532 10535 10537 10539 10541 10544 10548 10550 10553 10555 10556 10558 10559 10560 10560 10560 10560 10561 10561 10562 10562 10561 10558 10556 10554 10550 10544 10537 10531
10492 10496 10499 10501 10504 10507 10509 10510 10513 10516 10519 10522 10524 10526 10529 10531 10533 10534 10536 10539 10542 10543 10545 10546 10547 10548 10550 10551 10551 10552 10552 10552 10553 10553 10552 10550 10550 10549 10545 10542 10538 10532 10523 10516
10489 10492 10495 10497 10501 10505 10508 10511 10513 10516 10518 10520 10522 10524 10527 10529 10531 10532 10534 10536 10538 10540 10540 10541 10542 10542 10542 10542 10542 10543 10544 10544 10543 10542 10541 10541 10539 10537 10534 10531 10525 10517 10509 10501
10483 10486 10490 10494 10498 10503 10507 10509 10513 10515 10517 10518 10519 10521 10523 10525 10527 10529 10530 10532 10533 10534 10535 10536 10536 10536 10537 10537 10536 10536 10535 10534 10533 10532 10530 10529 10528 10525 10522 10517 10511 10504 10496 10490
10477 10481 10485 10490 10495 10501 10505 10508 10510 10513 10515 10516 10517 10518 10520 10522 10524 10525 10526 10526 10527 10528 10528 10529 10529 10529 10528 10528 10527 10526 10525 10523 10522 10520 10517 10516 10513 10511 10508 10504 10499 10491 10485 10482
10470 10474 10480 10485 10490 10495 10499 10502 10503 10506 10508 10510 10512 10514 10516 10518 10518 10519 10519 10519 10520 10521 10520 10520 10520 10520 10519 10518 10516 10515 10514 10511 10509 10506 10504 10502 10499 10497 10493 10490 10487 10479 10477 10476